Regional Weather Roundup
Issued by NWS Sterling, VA

Home | Current Version | Previous Version | Graphics & Text | Print | Product List | Glossary On
Versions: 1 2 3 4 5 6 7 8 9 10 11 12 13 14 15 16 17 18 19 20 21 22 23 24 25 26 27 28 29 30 31 32 33 34 35 36 37 38 39 40 41 42 43 44 45 46 47 48 49 50
000
ASUS41 KLWX 200710
RWRLWX

REGIONAL WEATHER ROUNDUP
NATIONAL WEATHER SERVICE BALTIMORE MD/WASHINGTON DC
200 AM EST SAT DEC 20 2014

Note: "FAIR" indicates few or no clouds below 12,000 feet
with no significant weather and/or obstructions to visibility.
 TC=TEMPERATURE CELSIUS

 * =Non NWS site. Station does not report precipitation (e.g. rain,
    snow, etc.), thunder, or fog.

DCZ001-MDZ009-015-VAZ040>042-051-053>054-200800-
WASHINGTON METRO

CITY           SKY/WX    TMP DP  RH WIND       PRES   REMARKS
WASHINGTON NAT CLEAR     34  20  56 NW8       30.26R WCI  27
DULLES         CLEAR     26  20  77 CALM      30.25R
ANDREWS AFB    CLEAR     29  21  70 NW6       30.24S
FT BELVOIR     CLEAR     23  21  91 CALM      30.27R
QUANTICO       CLEAR     26  22  84 NW6       30.28R
COLLEGE PARK*  CLEAR     28  23  80 CALM      30.25R
LEESBURG*      CLEAR     30  25  80 N5        30.25R
MANASSAS*      CLEAR     21  21 100 CALM      30.26R
GAITHERSBURG*  CLEAR     27  18  69 NW5       30.26R

$$

MDZ006>007-011-014-200800-
BALTIMORE METRO

CITY           SKY/WX    TMP DP  RH WIND       PRES   REMARKS
BWI AIRPORT    CLEAR     28  19  69 W3        30.23S
MD SCIENCE CTR   N/A     32  20  61 MISG      30.22F
MARTIN STATE   CLEAR     30  25  80 W5        30.25S
ANNAPOLIS      CLEAR     32  21  64 W6        30.24R
FORT MEADE*    CLEAR     27  23  86 CALM      30.27R

$$

MDZ012-015-019>023-200800-
MARYLAND EASTERN SHORE

CITY           SKY/WX    TMP DP  RH WIND       PRES   REMARKS
OCEAN CITY     CLEAR     28  22  78 NW5       30.23R
SALISBURY      CLEAR     31  23  72 W3        30.23R
BAY BRIDGE AP*   N/A     32  23  69 NW8       30.24R WCI  25
CAMBRIDGE*     CLEAR     34  27  75 NW5       30.23R
EASTON*        CLEAR     32  27  80 W3        30.27R

$$

MDZ017>025-200800-
SOUTHERN MARYLAND

CITY           SKY/WX    TMP DP  RH WIND       PRES   REMARKS
PATUXENT RIVER CLEAR     32  22  66 NW10      30.25R WCI  24
ST INIGOES     CLEAR     29  21  72 CALM      30.25R
LEONARDTOWN*   CLEAR     27  21  80 CALM      30.26R

$$

MDZ003>005-200800-
NORTH CENTRAL MARYLAND

CITY           SKY/WX    TMP DP  RH WIND       PRES   REMARKS
FREDERICK*     CLEAR     27  19  74 CALM      30.27R
HAGERSTOWN APT CLEAR     28  18  66 NW6       30.24R
WESTMINSTER*   PTCLDY    27  19  74 W6        30.20S

$$

MDZ501>502-200800-
WESTERN MARYLAND

CITY           SKY/WX    TMP DP  RH WIND       PRES   REMARKS
OAKLAND*       CLOUDY    21 N/A N/A CALM      30.12F
CUMBERLAND*    PTCLDY    32  19  59 NW7       30.29R

$$

VAZ025>031-200800-
SHENANDOAH VALLEY

CITY           SKY/WX    TMP DP  RH WIND       PRES   REMARKS
WINCHESTER*    CLEAR     27  18  69 CALM      30.24R
FRONT ROYAL*   FAIR      25  21  86 SW6       30.24S
LURAY*         FAIR      23  23 100 CALM      30.24S
NEW MARKET*    FAIR      19  17  93 CALM      30.24S
STAUNTON*      PTCLDY    23  19  85 CALM      30.24R
WAYNESBORO*    FAIR      23  20  87 NW5       30.20S

$$

WVZ021-048>050-054>055-200800-
EASTERN WEST VIRGINIA PANHANDLE

CITY           SKY/WX    TMP DP  RH WIND       PRES   REMARKS
MARTINSBURG    CLEAR     24  16  71 W5        30.25R
PETERSBURG*    PTCLDY    23  21  91 CALM      30.26S

$$

VAZ036>039-050-200800-
CENTRAL FOOTHILLS

CITY           SKY/WX    TMP DP  RH WIND       PRES   REMARKS
CHARLOTTESVILL CLEAR     27  21  78 CALM      30.23R
CULPEPER*      CLEAR     21  19  93 CALM      30.25R
ORANGE*        CLEAR     23  21  93 CALM      30.26R
GORDONSVILLE*  FAIR      21  20  93 CALM      30.25R
WARRENTON*     FAIR      21  21 100 CALM      30.24S

$$

VAZ055>057-200800-
NORTH AND CENTRAL PIEDMONT

CITY           SKY/WX    TMP DP  RH WIND       PRES   REMARKS
FREDERICKSBRG* CLEAR     28  23  84 CALM      30.26R
STAFFORD*      CLEAR     25  20  82 CALM      30.30S

$$

NCZ024-NYZ072-PAZ021-071-VAZ022-071-200800-
OTHER REGIONAL OBSERVATIONS

CITY           SKY/WX    TMP DP  RH WIND       PRES   REMARKS
NEW YORK CITY  CLOUDY    32  20  61 NE8       30.21S WCI  25
PHILADELPHIA   CLOUDY    34  21  59 W3        30.22R
PITTSBURGH     CLOUDY    29  19  66 CALM      30.24R
ROANOKE        PTCLDY    32  22  66 CALM      30.24S
RICHMOND       PTCLDY    32  21  64 N3        30.25S
RALEIGH        CLOUDY    37  30  75 NE3       30.23S

$$

ANZ530>537-200800-
MARINE OBSERVATIONS

STATION/POSITION TIME  TEMP    WIND        PRES
                       AIR SEA DIR/SP/G
                 (UTC) (F)     (DEG/KT/KT) (MB)
THOMAS PT LIGHT  0700   33 41  310/ 10/ 12 1025.2R
BALT KEY BRIDGE  0700   34     300/ 13/ 15 1023.4F
COVE POINT       0700   34     350/ 15/ 18 1023.9R
LEWISETTA        0700   35 43  350/  9/ 14 1024.1R
SOLOMONS ISLAND  0700      43                N/A

$$




USA.gov is the U.S. government's official web portal to all federal, state and local government web resources and services.